Location: Franzen
(48.6167°N, 15.3833°E)
Time: 10:47:23
(UTC+00:00)

CZ-2C R/B - Pass Details

Date: 22 April 2021
Orbit: 639 x 705 km, 98.3° (Epoch: 16 May)

Event Time Altitude Azimuth Distance (km) Brightness Sun altitude
Rises 20:17:20 0° 10° (N) 2,965 7.6 -19.5°
Reaches altitude 10° 20:19:35 10° 7° (N) 2,046 6.8 -19.7°
Maximum altitude 20:23:56 58° 289° (WNW) 750 4.2 -20.2°
Enters shadow 20:27:42 14° 212° (SSW) 1,805 5.7 -20.6°
